TimePDT,TemperatureF,Dew PointF,Humidity,Sea Level PressureIn,VisibilityMPH,Wind Direction,Wind SpeedMPH,Gust SpeedMPH,PrecipitationIn,Events,Conditions,WindDirDegrees,DateUTC
12:56 AM,48.9,43.0,80,30.03,10.0,NW,9.2,-,N/A,,Mostly Cloudy,310,2013-03-25 07:56:00
1:56 AM,48.0,42.1,80,30.03,10.0,WNW,6.9,-,N/A,,Clear,290,2013-03-25 08:56:00
2:56 AM,46.9,42.1,83,30.02,10.0,WNW,5.8,-,N/A,,Clear,290,2013-03-25 09:56:00
3:56 AM,48.0,42.1,80,30.01,10.0,West,6.9,-,N/A,,Scattered Clouds,260,2013-03-25 10:56:00
4:56 AM,48.0,42.1,80,30.01,10.0,West,8.1,-,N/A,,Scattered Clouds,270,2013-03-25 11:56:00
5:03 AM,48.2,42.8,82,30.01,10.0,West,6.9,-,N/A,,Mostly Cloudy,260,2013-03-25 12:03:00
5:25 AM,46.4,41.0,81,30.01,10.0,West,9.2,-,N/A,,Scattered Clouds,270,2013-03-25 12:25:00
5:56 AM,48.0,42.1,80,30.02,10.0,West,6.9,-,N/A,,Mostly Cloudy,260,2013-03-25 12:56:00
6:56 AM,48.0,41.0,77,30.02,10.0,West,6.9,-,N/A,,Overcast,270,2013-03-25 13:56:00
7:56 AM,46.9,41.0,80,30.03,10.0,West,5.8,-,N/A,,Overcast,260,2013-03-25 14:56:00
8:56 AM,48.9,41.0,74,30.04,10.0,West,6.9,-,N/A,,Mostly Cloudy,260,2013-03-25 15:56:00
9:56 AM,51.1,42.1,71,30.04,10.0,West,5.8,-,N/A,,Mostly Cloudy,280,2013-03-25 16:56:00
10:56 AM,51.1,41.0,68,30.05,10.0,West,18.4,-,N/A,,Mostly Cloudy,280,2013-03-25 17:56:00
11:56 AM,54.0,41.0,62,30.05,10.0,West,17.3,-,N/A,,Overcast,280,2013-03-25 18:56:00
12:56 PM,54.0,41.0,62,30.04,10.0,West,18.4,-,N/A,,Mostly Cloudy,270,2013-03-25 19:56:00
1:56 PM,54.0,41.0,62,30.03,10.0,WNW,18.4,-,N/A,,Mostly Cloudy,290,2013-03-25 20:56:00
2:56 PM,54.0,39.9,59,30.01,10.0,West,20.7,27.6,N/A,,Mostly Cloudy,280,2013-03-25 21:56:00
3:56 PM,54.0,39.9,59,30.00,10.0,West,21.9,28.8,N/A,,Mostly Cloudy,270,2013-03-25 22:56:00
4:56 PM,53.1,39.9,61,29.99,10.0,West,20.7,-,N/A,,Mostly Cloudy,260,2013-03-25 23:56:00
5:56 PM,52.0,39.9,63,29.99,10.0,West,21.9,27.6,N/A,,Mostly Cloudy,260,2013-03-26 00:56:00
6:56 PM,51.1,41.0,68,29.99,10.0,West,21.9,27.6,N/A,,Mostly Cloudy,260,2013-03-26 01:56:00
7:56 PM,50.0,41.0,71,29.99,10.0,West,12.7,20.7,N/A,,Overcast,280,2013-03-26 02:56:00
8:56 PM,50.0,41.0,71,30.01,10.0,WSW,10.4,-,N/A,,Mostly Cloudy,250,2013-03-26 03:56:00
9:56 PM,50.0,41.0,71,30.01,10.0,West,11.5,-,N/A,,Mostly Cloudy,260,2013-03-26 04:56:00
10:56 PM,50.0,42.1,74,30.02,10.0,West,11.5,-,N/A,,Mostly Cloudy,260,2013-03-26 05:56:00
11:56 PM,50.0,42.1,74,30.03,10.0,WSW,11.5,-,N/A,,Mostly Cloudy,250,2013-03-26 06:56:00